Location: Northcutt
(34.7304°N, 84.4305°W)
Time: 15:47:43
(UTC+00:00)

Hubble Space Telescope - Pass Details

Date: 13 August 2022
Orbit: 531 x 535 km, 28.5° (Epoch: 27 September)

Event Time Altitude Azimuth Distance (km) Brightness Sun altitude
Rises 02:43:25 0° 261° (W) 2,668 4.9 -24.8°
Reaches altitude 10° 02:46:12 10° 242° (WSW) 1,777 3.6 -25.2°
Enters shadow 02:47:04 14° 232° (SW) 1,563 3.2 -25.4°
